Location: Unspecified
(0.0000°N, 0.0000°E)
Time: 17:33:41
(UTC+00:00)

Tiros 1 - All Passes

Search period start: 07 July 2015 00:00
Search period end: 17 July 2015 00:00
Orbit: 632 x 665 km, 48.4° (Epoch: 07 July)

Date Brightness Start Highest point End Pass type
(mag) Time Alt. Az. Time Alt. Az. Time Alt. Az.
07 Jul - 05:21:26 10° NNW 05:25:46 37° NE 05:30:11 10° ESE visible
07 Jul - 07:04:43 10° W 07:07:58 18° SW 07:11:04 10° S daylight
07 Jul - 17:34:31 10° SSW 17:39:13 70° SE 17:43:50 10° NE daylight
08 Jul - 04:09:34 10° NE 04:09:59 10° NE 04:10:45 10° ENE visible
08 Jul - 05:47:36 10° NW 05:52:16 63° SW 05:57:01 10° SSE daylight
08 Jul - 16:20:19 10° S 16:23:33 19° SE 16:26:55 10° E daylight
08 Jul - 18:01:29 10° WSW 18:05:44 33° NW 18:09:53 10° NNE daylight
09 Jul - 04:32:29 10° NNW 04:36:42 33° NE 04:41:01 10° ESE visible
09 Jul - 06:15:26 10° W 06:18:53 19° SW 06:22:13 10° S daylight
09 Jul - 16:45:30 10° SSW 16:50:10 62° SE 16:54:47 10° NE daylight
10 Jul - 04:58:32 10° NW 05:03:14 70° SW 05:07:58 10° SSE visible
10 Jul - 15:31:29 10° S 15:34:29 17° SE 15:37:38 10° E daylight
10 Jul - 17:12:19 10° WSW 17:16:41 37° NW 17:20:57 10° NNE daylight
11 Jul - 03:43:34 10° N 03:47:39 30° NE 03:51:50 10° ESE visible
11 Jul - 05:26:11 10° W 05:29:49 21° SW 05:33:21 10° S visible
11 Jul - 15:56:29 10° SSW 16:01:07 56° SE 16:05:43 10° NE daylight
11 Jul - 17:41:46 10° WNW 17:43:22 11° NW 17:44:39 10° NNW daylight
12 Jul - 04:09:28 10° NW 04:14:10 78° SW 04:18:55 10° SE visible
12 Jul - 14:42:41 10° SSE 14:45:24 16° SE 14:48:19 10° E daylight
12 Jul - 16:23:10 10° WSW 16:27:37 41° NW 16:32:00 10° NNE daylight
13 Jul - 02:54:40 10° N 02:58:36 27° NE 03:02:38 10° ESE night (unlit)
13 Jul - 04:36:58 10° WNW 04:40:45 23° SW 04:44:27 10° S visible
13 Jul - 15:07:28 10° SSW 15:12:04 50° SE 15:16:37 10° NE daylight
13 Jul - 16:52:07 10° WNW 16:54:17 13° NW 16:56:11 10° NNW daylight
14 Jul - 03:20:26 10° NW 03:25:07 86° SW 03:29:52 10° SE night (unlit)
14 Jul - 13:53:55 10° SSE 13:56:19 14° SE 13:58:57 10° E daylight
14 Jul - 15:34:01 10° SW 15:38:34 45° NW 15:43:02 10° NNE daylight
15 Jul - 02:05:46 10° N 02:09:31 25° NE 02:13:24 10° ESE night (unlit)
15 Jul - 03:47:45 10° WNW 03:51:40 25° SW 03:55:32 10° S night (unlit)
15 Jul - 14:18:27 10° SSW 14:23:00 45° SE 14:27:31 10° NE daylight
15 Jul - 16:02:37 10° W 16:05:12 14° NW 16:07:33 10° NNW daylight
16 Jul - 02:31:24 10° NW 02:36:04 85° NE 02:40:47 10° SE night (unlit)
16 Jul - 13:05:13 10° SSE 13:07:15 13° SE 13:09:30 10° ESE daylight
16 Jul - 14:44:53 10° SW 14:49:31 51° NW 14:54:04 10° NNE daylight
